Rhinelander, WI

10:20 AM CST on February 13, 2016 (GMT -0600)
Rhinelander-Oneida County

Weather History for KRHI - September, 2013

Change the Weather History Date:

Monday, September 2, 2013

  Actual Average Record
Temperature  
Mean Temperature 49 °F 61 °F  
Max Temperature 59 °F 73 °F 92 °F (1929)
Min Temperature 39 °F 50 °F 33 °F (1976)
Degree Days  
Heating Degree Days 16 5  
Month to date heating degree days 16 10  
Since 1 July heating degree days 206 137  
Cooling Degree Days 0 1  
Month to date cooling degree days 1 2  
Year to date cooling degree days 265 243  
Moisture  
Dew Point 48 °F    
Average Humidity 86    
Maximum Humidity 100    
Minimum Humidity 72    
Precipitation  
Precipitation 0.01 in 0.13 in 1.12 in (1970)
Month to date precipitation 0.14 0.26  
Year to date precipitation 26.98 21.14  
Snow  
Snow 0.00 in - 0.00 in ()
Month to date snowfall 0.0  
Since 1 July snowfall 0.0  
Since 1 September snowfall 0.0  
Snow Depth 0.00 in    
Sea Level Pressure  
Sea Level Pressure 30.01 in    
Wind  
Wind Speed 5 mph (NNW)    
Max Wind Speed 14 mph    
Max Gust Speed 23 mph    
Visibility 8 miles    
Events Rain    
T = Trace of Precipitation, MM = Missing Value Source: NWS Daily Summary

Daily Weather History Graph

Daily Weather History Graph

Search for Another Location

Airport or City:

Trip Planner

Search our weather history database for the weather conditions in past years. The results will help you decide how hot, cold, wet, or windy it might be!

Date:

Astronomy

Sep. 02, 2013 Rise Set
Actual Time 6:20 AM CDT 7:33 PM CDT
Civil Twilight 5:50 AM CDT 8:03 PM CDT
Nautical Twilight 5:13 AM CDT 8:40 PM CDT
Astronomical Twilight 4:34 AM CDT 9:19 PM CDT
Moon 3:32 AM CDT (9/2) 5:50 PM CDT (9/2)
Length of Visible Light 14h 13m
Length of Day
13h 12m
Waning Crescent, 8% of the Moon is Illuminated
Sep 2
Waning Crescent
Sep 5
New
Sep 12
First Quarter
Sep 19
Full
Sep 26
Last Quarter

Hourly Weather History & Observations

Time (CDT) Temp. Dew Point Humidity Pressure Visibility Wind Dir Wind Speed Gust Speed Precip Events Conditions
12:31 AM 57.2 °F 55.4 °F 94% 29.92 in 10.0 mi North 4.6 mph - N/A   Overcast
12:38 AM 57.2 °F 55.4 °F 94% 29.92 in 10.0 mi North 5.8 mph - N/A   Overcast
12:53 AM 57.0 °F 54.0 °F 89% 29.91 in 10.0 mi Variable 6.9 mph - N/A   Overcast
1:08 AM 57.2 °F 53.6 °F 88% 29.92 in 10.0 mi NW 6.9 mph - N/A   Overcast
1:49 AM 55.4 °F 53.6 °F 94% 29.93 in 6.0 mi North 4.6 mph - 0.00 in   Overcast
1:53 AM 55.0 °F 54.0 °F 96% 29.92 in 7.0 mi Variable 3.5 mph - 0.00 in   Overcast
2:17 AM 53.6 °F 53.6 °F 100% 29.93 in 2.0 mi Variable 4.6 mph - 0.00 in Rain Light Rain
2:28 AM 53.6 °F 53.6 °F 100% 29.93 in 4.0 mi North 5.8 mph - 0.00 in   Overcast
2:53 AM 54.0 °F 52.0 °F 93% 29.93 in 10.0 mi Variable 4.6 mph - 0.01 in   Overcast
3:08 AM 51.8 °F 51.8 °F 100% 29.94 in 9.0 mi NE 8.1 mph - N/A   Overcast
3:53 AM 52.0 °F 50.0 °F 93% 29.94 in 10.0 mi North 4.6 mph - N/A   Overcast
4:08 AM 51.8 °F 48.2 °F 88% 29.95 in 10.0 mi North 5.8 mph - N/A   Overcast
4:28 AM 51.8 °F 48.2 °F 88% 29.95 in 10.0 mi Variable 3.5 mph - N/A   Overcast
4:53 AM 51.1 °F 48.0 °F 89% 29.96 in 10.0 mi Variable 4.6 mph - N/A   Overcast
5:53 AM 51.1 °F 48.9 °F 92% 29.97 in 10.0 mi NNW 5.8 mph - N/A   Overcast
6:53 AM 51.1 °F 46.9 °F 86% 29.99 in 10.0 mi Variable 4.6 mph - N/A   Overcast
7:34 AM 51.8 °F 46.4 °F 82% 30.00 in 9.0 mi North 10.4 mph - 0.00 in Rain Light Rain
7:53 AM 51.1 °F 46.9 °F 86% 30.00 in 10.0 mi North 8.1 mph - 0.00 in   Overcast
8:29 AM 51.8 °F 46.4 °F 82% 30.01 in 10.0 mi North 10.4 mph 20.7 mph N/A   Overcast
8:53 AM 52.0 °F 46.0 °F 80% 30.02 in 10.0 mi North 12.7 mph 23.0 mph N/A   Overcast
9:53 AM 53.1 °F 46.0 °F 77% 30.04 in 10.0 mi North 8.1 mph 18.4 mph N/A   Overcast
10:53 AM 54.0 °F 46.0 °F 75% 30.05 in 10.0 mi Variable 6.9 mph - N/A   Overcast
11:53 AM 55.0 °F 46.9 °F 74% 30.05 in 10.0 mi NNW 9.2 mph - N/A   Overcast
12:53 PM 55.9 °F 48.0 °F 75% 30.05 in 10.0 mi North 8.1 mph - N/A   Overcast
1:53 PM 57.0 °F 48.0 °F 72% 30.05 in 10.0 mi NW 8.1 mph - N/A   Overcast
2:53 PM 55.9 °F 48.9 °F 77% 30.06 in 10.0 mi Variable 6.9 mph - N/A   Overcast
3:53 PM 57.0 °F 48.0 °F 72% 30.05 in 10.0 mi Variable 6.9 mph - N/A   Overcast
4:53 PM 57.9 °F 48.9 °F 72% 30.05 in 10.0 mi West 5.8 mph - N/A   Overcast
5:53 PM 57.9 °F 48.9 °F 72% 30.05 in 10.0 mi WNW 5.8 mph - N/A   Overcast
6:53 PM 55.9 °F 48.9 °F 77% 30.06 in 10.0 mi WNW 5.8 mph - N/A   Mostly Cloudy
7:11 PM 55.4 °F 48.2 °F 77% 30.04 in 10.0 mi WNW 4.6 mph - N/A   Scattered Clouds
7:18 PM 55.4 °F 48.2 °F 77% 30.04 in 10.0 mi WNW 4.6 mph - N/A   Mostly Cloudy
7:50 PM 53.6 °F 48.2 °F 82% 30.04 in 10.0 mi Calm Calm - N/A   Scattered Clouds
7:53 PM 53.1 °F 48.9 °F 86% 30.06 in 10.0 mi WNW 4.6 mph - N/A   Partly Cloudy
8:53 PM 50.0 °F 48.0 °F 93% 30.07 in 10.0 mi West 4.6 mph - N/A   Clear
9:53 PM 46.9 °F 45.0 °F 93% 30.07 in 10.0 mi Calm Calm - N/A   Clear
10:26 PM 46.4 °F 44.6 °F 93% 30.05 in 2.5 mi Calm Calm - N/A   Partly Cloudy
10:35 PM 44.6 °F 44.6 °F 100% 30.06 in 10.0 mi Calm Calm - N/A   Clear
10:53 PM 43.0 °F 42.1 °F 97% 30.08 in 9.0 mi Calm Calm - N/A   Clear
11:01 PM 42.8 °F 42.8 °F 100% 30.05 in 1.2 mi Calm Calm - N/A   Partly Cloudy
11:03 PM 42.8 °F 42.8 °F 100% 30.05 in 0.8 mi Calm Calm - N/A   Mist
11:26 PM 42.8 °F 42.8 °F 100% 30.05 in 1.2 mi Calm Calm - N/A   Mostly Cloudy
11:31 PM 44.6 °F 42.8 °F 93% 30.06 in 3.0 mi Calm Calm - N/A   Mostly Cloudy
11:44 PM 42.8 °F 42.8 °F 100% 30.05 in 10.0 mi Calm Calm - N/A   Scattered Clouds
11:53 PM 44.1 °F 42.1 °F 93% 30.07 in 2.5 mi Calm Calm - N/A   Clear